This is the latest recevied weather packets stored in our database for station/object KB4MOX. If no packets are shown the sender has not sent any weather packets the latest 10 day(s).
| Time | Temp. | Humidity | Pressure | Rain* | Wind** | Luminosity | Snow |
|---|---|---|---|---|---|---|---|
| 1777660841 | 20° C | 64% | 1013.5 hPa | 0 mm | - | 200 W/m² | - |
| 1777660538 | 20° C | 63% | 1013.8 hPa | 0 mm | - | 163 W/m² | - |
| 1777660234 | 20.56° C | 64% | 1013.9 hPa | 0 mm | - | 135 W/m² | - |
| 1777659931 | 20.56° C | 62% | 1013.9 hPa | 0 mm | - | 151 W/m² | - |
| 1777659628 | 21.11° C | 62% | 1013.7 hPa | 0 mm | - | 321 W/m² | - |
| 1777659325 | 20.56° C | 65% | 1013.6 hPa | 0 mm | - | 306 W/m² | - |
| 1777659022 | 20.56° C | 65% | 1013.5 hPa | 0 mm | - | 269 W/m² | - |
| 1777658720 | 20.56° C | 65% | 1013.3 hPa | 0 mm | - | 203 W/m² | - |
| 1777658416 | 20.56° C | 62% | 1013.4 hPa | 0 mm | - | 213 W/m² | - |
| 1777658112 | 21.11° C | 62% | 1013.5 hPa | 0 mm | - | 240 W/m² | - |
| 1777657809 | 21.11° C | 63% | 1013.5 hPa | 0 mm | - | 334 W/m² | - |
| 1777657507 | 20.56° C | 65% | 1013.4 hPa | 0 mm | - | 530 W/m² | - |
| 1777657204 | 20.56° C | 64% | 1013.2 hPa | 0 mm | - | 470 W/m² | - |
| 1777656901 | 20° C | 65% | 1013.3 hPa | 0 mm | - | 383 W/m² | - |
| 1777656597 | 20° C | 66% | 1013.2 hPa | 0 mm | - | 387 W/m² | - |
| 1777656293 | 20° C | 64% | 1013.5 hPa | 0 mm | - | 345 W/m² | - |
| 1777655989 | 20° C | 65% | 1013.3 hPa | 0 mm | - | 376 W/m² | - |
| 1777655685 | 20° C | 65% | 1013.6 hPa | 0 mm | - | 265 W/m² | - |
| 1777655382 | 20.56° C | 64% | 1013.5 hPa | 0 mm | - | 223 W/m² | - |
| 1777655078 | 20.56° C | 63% | 1013.7 hPa | 0 mm | - | 280 W/m² | - |
| 1777654776 | 20.56° C | 64% | 1013.7 hPa | 0 mm | - | 425 W/m² | - |
| 1777654474 | 20.56° C | 65% | 1013.8 hPa | 0 mm | - | 330 W/m² | - |
| 1777654171 | 20.56° C | 63% | 1013.6 hPa | 0 mm | - | 561 W/m² | - |
| 1777653869 | 20.56° C | 63% | 1013.5 hPa | 0 mm | - | 515 W/m² | - |
| 1777653565 | 20° C | 66% | 1013.8 hPa | 0 mm | - | 436 W/m² | - |
* Rain latest hour (hover to see other rain measurements)
** Current wind speed in m/s (hover to see current wind gust speed)